This is the latest recevied weather packets stored in our database for station/object DL9GRB-13. If no packets are shown the sender has not sent any weather packets the latest 10 day(s).
| Time | Temp. | Humidity | Pressure | Rain* | Wind** | Luminosity | Snow |
|---|---|---|---|---|---|---|---|
| 1777124644 | 10° C | 70% | 1011.4 hPa | 0 mm | - | 191 W/m² | - |
| 1777124464 | 10° C | 70% | 1011.4 hPa | 0 mm | - | 199 W/m² | - |
| 1777124284 | 10° C | 70% | 1011.4 hPa | 0 mm | - | 177 W/m² | - |
| 1777124104 | 10° C | 71% | 1011.5 hPa | 0 mm | - | 140 W/m² | - |
| 1777123924 | 10.56° C | 70% | 1011.4 hPa | 0 mm | - | 141 W/m² | - |
| 1777123744 | 10.56° C | 70% | 1011.3 hPa | 0 mm | - | 140 W/m² | - |
| 1777123564 | 10.56° C | 71% | 1011.5 hPa | 0 mm | - | 162 W/m² | - |
| 1777123384 | 10.56° C | 71% | 1011.2 hPa | 0 mm | - | 290 W/m² | - |
| 1777123204 | 10° C | 72% | 1011.4 hPa | 0 mm | - | 324 W/m² | - |
| 1777123024 | 10° C | 72% | 1011.4 hPa | 0 mm | - | 235 W/m² | - |
| 1777122844 | 10° C | 72% | 1011.5 hPa | 0 mm | - | 156 W/m² | - |
| 1777122664 | 10° C | 71% | 1011.7 hPa | 0 mm | - | 188 W/m² | - |
| 1777122484 | 10° C | 70% | 1011.5 hPa | 0 mm | - | 129 W/m² | - |
| 1777122304 | 10.56° C | 70% | 1011.6 hPa | 0 mm | - | 166 W/m² | - |
| 1777122124 | 10° C | 69% | 1011.4 hPa | 0 mm | - | 251 W/m² | - |
| 1777121944 | 10° C | 70% | 1011.6 hPa | 0 mm | - | 218 W/m² | - |
| 1777121764 | 10.56° C | 70% | 1011.7 hPa | 0 mm | - | 177 W/m² | - |
| 1777121584 | 10.56° C | 70% | 1011.4 hPa | 0 mm | - | 163 W/m² | - |
| 1777121404 | 10.56° C | 69% | 1011.5 hPa | 0 mm | - | 175 W/m² | - |
| 1777121224 | 10.56° C | 70% | 1011.6 hPa | 0 mm | - | 232 W/m² | - |
| 1777121044 | 11.11° C | 70% | 1011.4 hPa | 0 mm | - | 239 W/m² | - |
| 1777120864 | 10.56° C | 71% | 1011.5 hPa | 0 mm | - | 166 W/m² | - |
| 1777120684 | 11.11° C | 70% | 1011.8 hPa | 0 mm | - | 176 W/m² | - |
| 1777120504 | 11.11° C | 69% | 1011.6 hPa | 0 mm | - | 171 W/m² | - |
| 1777120324 | 11.11° C | 69% | 1011.6 hPa | 0 mm | - | 175 W/m² | - |
* Rain latest hour (hover to see other rain measurements)
** Current wind speed in m/s (hover to see current wind gust speed)